SCP
1 2 2 2 1 1 1 1 1 1 1 1 1 1 1 0 0 1 1 1 1 1 1 1 1 1 1 1 1 1 1 1 1 1 1 0 0 0 0 0 1 1 1
1 1 2 2 2 1 1 1 1 1 1 2 1 1 1 1 1 1 1 1 1 1 1 1 1 1 1 1 1 1 1 1 1 1 1 1 1 1 0 0 1 1 1
1 1 1 2 2 2 2 2 2 2 2 2 2 2 1 1 1 1 1 1 2 2 2 1 1 1 1 1 1 1 1 1 1 1 1 1 1 1 1 1 1 1 1
1 1 1 1 2 2 2 3 3 3 3 3 3 3 2 2 1 1 1 1 2 2 2 2 2 2 2 2 1 2 2 2 2 2 2 2 2 2 1 1 1 1 1
1 1 1 1 1 2 3 3 4 4 4 4 4 3 3 2 2 2 1 2 2 2 2 2 3 3 2 2 2 2 2 2 2 2 2 2 3 3 2 2 2 2 1
2 2 2 1 1 2 3 4 5 5 5 5 5 4 3 3 2 2 2 2 3 3 2 3 3 3 3 3 3 2 2 2 2 2 3 3 3 3 3 3 3 2 2
2 2 2 2 2 2 3 4 6 7 7 7 6 5 4 4 3 2 2 2 3 3 2 2 3 3 3 4 4 3 2 2 2 2 3 3 3 3 3 3 3 2 2
2 2 2 3 3 3 3 4 6 8 9 9 8 6 5 4 3 2 2 2 2 2 2 2 2 2 3 4 4 3 3 2 2 2 2 2 2 2 2 2 1 1 1
3 3 3 4 4 4 4 4 6 7 8 8 7 6 5 4 3 2 2 2 2 2 1 2 2 2 3 3 3 3 2 2 2 2 1 1 1 1 1 1 1 1 1
3 3 4 4 4 4 4 4 5 6 6 6 5 4 4 3 3 2 2 1 1 1 2 2 2 2 2 2 2 2 2 1 1 1 1 1 1 1 1 1 1 1 1
2 2 3 3 3 3 4 4 5 5 5 5 4 4 3 3 2 2 2 2 2 2 2 2 2 2 2 2 1 1 1 1 1 1 1 1 1 1 1 1 1 1 1
1 2 2 3 3 3 3 4 4 5 6 5 5 4 3 3 3 2 2 2 2 2 2 2 2 3 2 1 1 2 2 1 1 1 2 2 2 2 2 2 2 1 1
2 2 3 3 3 3 3 3 4 5 5 5 5 4 3 3 3 3 3 3 3 2 2 2 3 3 2 1 1 1 1 2 2 2 1 1 1 2 2 2 2 2 2
3 4 4 3 2 2 2 3 3 4 5 6 5 5 4 4 4 3 3 3 3 3 3 3 3 3 2 1 1 1 1 2 2 1 1 1 1 1 2 2 2 2 2
5 5 5 3 2 2 2 3 3 4 5 6 7 6 6 5 4 4 4 4 4 4 4 4 3 3 2 1 1 1 1 1 2 1 1 1 1 2 2 2 2 3 3
6 7 6 4 3 3 3 3 4 5 6 6 7 7 7 6 5 4 4 4 4 3 3 4 4 3 2 2 1 1 1 1 2 1 1 2 2 2 2 2 2 3 4
6 6 5 4 4 4 4 4 4 5 6 6 6 7 7 6 6 5 5 4 4 3 3 3 3 3 3 2 2 1 1 1 1 1 2 2 2 2 2 3 3 3 4
6 5 5 4 4 4 5 5 5 6 6 5 5 6 6 7 6 5 4 4 4 4 4 4 3 3 3 2 2 1 1 1 1 1 1 2 2 2 2 3 3 4 4
6 6 4 4 4 4 4 4 5 5 6 5 5 5 6 6 6 5 5 5 5 5 5 4 3 3 3 3 2 1 1 2 2 1 1 1 1 1 2 3 3 4 4
6 6 5 4 4 5 5 5 6 5 5 5 5 5 5 5 5 5 5 5 5 5 4 3 3 3 3 3 2 1 1 2 2 2 2 2 1 2 2 2 3 4 4
6 5 5 5 5 5 5 6 6 5 5 5 5 5 5 5 5 5 6 6 6 5 4 3 3 3 3 3 2 2 2 2 2 3 3 3 2 2 2 3 3 4 4
5 5 4 4 4 4 5 5 5 5 5 6 6 5 5 5 5 6 6 6 6 5 4 4 4 5 5 4 4 3 2 2 3 3 4 3 3 3 3 3 2 2 2
5 4 3 3 4 5 5 5 5 6 6 7 6 5 5 6 7 7 7 6 6 5 5 5 6 6 6 5 4 3 2 2 3 4 4 4 3 3 3 3 2 1 1
4 4 4 6 8 9 9 8 7 7 7 7 6 5 5 7 8 8 7 6 6 5 4 5 5 4 4 4 3 3 3 3 3 4 4 4 4 4 4 3 2 1 1
5 7 9 12 13 13 11 9 7 6 6 5 5 5 6 8 9 9 7 6 5 4 3 3 3 2 2 2 2 2 2 2 3 4 5 5 5 5 4 2 2 1 1
9 11 14 16 15 13 10 8 6 5 5 5 5 6 7 9 10 9 7 5 4 3 3 2 2 2 2 1 2 2 2 2 3 4 5 6 6 5 3 2 2 1 1
Wind_Speed
9 9 10 10 9 7 7 6 5 4 3 2 2 1 1 1 1 1 2 2 2 2 2 1 1 1 1 0 0 1 1 1 1 2 2 3 1 1 1 1 1 2 3
9 9 9 10 9 8 7 6 6 5 4 3 2 2 2 1 1 1 1 2 2 2 2 2 1 1 1 1 1 1 1 1 1 1 1 2 4 3 1 1 1 1 1
13 11 11 10 10 9 9 8 6 6 5 4 2 1 1 1 1 1 0 1 2 2 2 2 2 1 1 1 0 1 1 0 1 1 2 2 2 2 3 2 1 1 1
11 11 11 11 11 10 9 7 7 5 5 4 4 4 3 2 2 2 1 1 1 2 2 1 2 2 1 1 1 1 1 1 1 1 0 2 3 1 2 3 2 2 1
12 12 12 12 11 10 9 7 7 6 5 4 5 4 3 2 2 1 1 1 1 1 1 1 1 1 1 1 1 1 1 1 1 1 1 1 0 1 2 2 3 3 2
11 11 11 9 8 9 8 8 7 6 5 5 5 5 4 3 2 2 2 1 1 1 1 1 1 2 1 2 2 1 1 1 1 1 1 1 1 1 2 2 2 2 3
11 10 10 10 9 10 9 8 8 7 6 6 5 5 5 4 4 3 3 2 1 1 1 1 1 1 2 2 1 1 1 1 1 1 1 1 2 2 2 1 1 2 2
11 11 12 11 11 10 10 9 9 7 7 6 5 4 4 3 3 3 3 3 2 2 2 2 2 2 2 1 1 1 1 0 0 1 1 1 1 1 2 2 2 1 2
11 11 10 10 10 10 10 10 9 7 7 6 5 4 4 3 3 3 2 2 2 2 2 2 2 2 2 1 1 1 1 0 0 1 1 0 1 0 0 1 2 3 1
8 9 9 9 8 8 8 7 8 8 7 6 6 5 4 4 3 3 2 2 2 2 1 1 2 2 1 1 1 1 1 0 0 0 0 1 1 1 1 0 0 1 2
10 9 8 8 8 7 7 7 7 7 6 6 6 4 4 4 3 3 3 3 2 2 2 2 2 2 1 1 1 1 0 0 1 1 0 1 1 0 1 0 0 0 1
8 8 8 7 7 7 7 8 8 7 7 7 5 5 4 4 3 3 3 3 2 2 2 2 2 2 1 1 1 1 1 1 1 1 1 1 1 1 1 0 1 1 1
7 7 7 7 7 7 7 7 7 8 7 6 6 5 4 4 4 4 3 3 3 2 2 2 2 2 2 2 2 2 1 1 2 1 1 1 0 1 1 1 1 1 1
7 7 6 6 6 7 6 7 6 7 7 6 6 6 5 5 5 4 3 3 3 2 2 2 3 3 2 2 2 2 1 1 1 1 1 1 1 2 2 1 1 1 0
5 6 7 6 5 5 5 6 6 6 7 7 7 7 6 5 4 4 3 3 3 3 2 2 2 2 2 2 2 2 2 2 1 1 1 1 1 2 1 1 1 1 1
5 5 6 6 6 6 6 5 5 5 6 7 7 6 5 5 5 4 3 3 3 2 2 3 3 2 2 2 3 3 2 2 2 2 2 1 1 1 1 1 1 1 2
4 5 5 6 6 6 6 6 5 5 5 6 6 5 6 5 5 5 3 4 3 3 2 3 3 3 3 3 3 4 3 3 2 2 2 2 1 1 1 2 2 2 2
4 3 3 3 3 3 3 4 3 4 4 4 5 5 5 5 4 4 4 4 3 3 3 3 3 3 3 3 4 4 3 2 2 3 3 2 2 2 1 1 2 2 3
4 3 3 3 3 3 3 4 3 2 3 4 4 5 6 5 5 5 4 4 3 3 3 3 3 3 3 3 3 3 2 2 3 3 3 3 2 3 2 1 2 3 4
4 3 3 3 3 3 3 4 3 2 3 4 5 5 5 5 5 5 4 3 3 3 3 2 2 3 3 4 4 3 2 2 2 2 3 3 3 4 3 2 3 3 4
4 3 4 3 2 2 4 4 3 3 4 3 3 4 5 5 5 4 3 3 3 3 2 2 2 3 4 4 5 4 2 3 3 3 3 3 4 4 4 3 4 5 4
4 4 3 2 1 2 4 3 2 2 1 2 2 3 3 4 4 3 3 3 4 3 3 2 2 2 3 4 4 5 5 4 3 4 3 3 5 4 4 3 4 4 2
3 2 3 2 2 2 3 2 2 1 0 1 1 2 2 3 3 4 4 3 3 3 3 3 3 2 2 3 4 4 5 5 3 3 4 4 5 4 3 4 4 2 1
2 2 3 3 1 1 1 1 1 1 1 0 1 1 2 2 2 3 3 3 4 3 3 3 3 3 2 2 2 2 2 3 3 2 3 4 4 3 3 3 2 1 2
1 2 3 2 1 0 0 0 0 1 1 0 1 1 2 3 3 2 3 3 4 5 5 4 4 4 4 5 5 4 3 3 2 1 1 1 1 1 1 1 1 1 1
1 1 2 1 1 0 1 1 0 1 1 1 2 1 1 2 2 2 0 1 2 3 5 5 5 4 6 5 5 6 5 4 3 2 1 2 2 2 2 1 1 1 1
Wind_Direction
176 167 163 161 156 155 151 150 149 160 147 130 132 132 155 169 172 196 181 175 165 148 137 138 119 98 115 156 91 100 55 355 18 44 4 345 335 301 249 240 225 230 230
170 172 167 166 164 165 165 162 163 167 170 169 168 170 167 191 199 207 177 182 177 174 159 155 163 136 123 76 59 94 77 331 30 100 62 357 347 340 314 290 222 247 245
176 174 170 172 168 170 172 171 173 173 177 170 145 117 78 49 44 52 216 221 192 179 161 156 161 158 145 155 172 137 135 248 308 130 138 145 245 310 327 327 319 285 263
176 173 173 174 176 178 173 167 169 173 178 165 154 157 159 175 203 201 205 228 190 185 174 159 163 172 162 174 221 169 169 158 271 296 230 184 174 173 307 324 327 322 308
177 179 179 179 178 176 172 169 166 175 180 173 172 168 174 190 195 184 183 205 227 218 196 173 167 179 182 191 223 251 181 172 185 218 243 253 174 163 182 285 313 326 306
178 180 181 174 174 172 171 170 168 178 180 178 177 174 181 182 176 188 191 212 232 249 241 175 175 185 190 198 215 227 223 230 210 209 184 174 185 215 186 231 274 291 298
176 174 172 171 174 174 176 174 174 183 184 181 185 186 188 188 191 196 191 191 202 226 244 212 192 191 201 206 200 197 230 242 235 232 226 216 221 200 177 189 252 287 301
175 176 178 175 177 178 177 175 179 184 185 183 188 188 187 188 194 192 186 192 202 214 213 202 197 199 198 207 182 205 246 253 261 307 262 238 255 214 184 183 183 284 312
176 177 177 175 175 178 181 180 178 181 184 185 183 186 186 187 191 191 189 194 206 207 207 197 185 198 183 169 155 182 249 149 331 302 316 315 303 323 237 180 170 169 234
171 173 172 172 172 175 175 171 174 180 182 185 191 194 195 192 185 179 192 200 212 209 199 198 172 182 176 162 151 189 247 129 271 258 15 347 311 318 324 258 190 166 177
167 164 166 170 169 167 169 172 179 179 181 188 192 193 189 185 182 191 206 208 209 196 192 193 173 184 194 189 171 208 203 170 292 311 355 292 296 338 330 328 29 158 164
156 156 159 159 159 164 171 179 182 182 189 190 185 190 186 177 184 200 211 205 203 201 197 178 170 183 190 194 186 209 240 204 241 278 303 292 304 324 296 295 284 257 208
143 149 154 157 163 172 177 182 187 187 185 178 179 184 186 187 199 206 208 204 202 202 188 162 168 185 193 195 196 192 212 215 219 230 229 256 242 302 290 281 275 265 277
145 148 155 168 170 174 180 181 188 188 180 175 178 184 193 195 200 204 204 204 197 189 185 177 183 187 188 191 196 194 205 223 237 230 222 239 221 240 260 269 267 256 258
142 154 163 168 169 173 181 181 185 185 181 178 187 195 198 194 191 196 202 201 195 196 183 178 190 195 194 206 199 197 198 203 225 252 244 247 256 262 247 265 253 220 204
152 161 166 170 173 176 183 186 186 184 175 181 195 196 190 190 194 200 199 191 193 191 175 185 191 207 229 220 200 186 198 198 199 229 257 266 270 292 313 323 295 207 195
150 159 171 177 183 187 183 182 187 173 169 185 192 190 189 192 199 198 190 194 195 186 190 202 196 210 227 213 205 194 190 203 214 220 234 268 296 284 282 307 326 314 263
150 158 161 170 178 173 163 164 145 151 166 180 186 184 184 190 190 187 193 196 187 188 202 208 205 209 236 218 210 200 198 210 227 225 215 224 261 266 253 261 293 291 286
147 152 149 152 147 145 148 132 123 136 161 179 187 188 185 187 189 195 201 194 181 190 203 204 202 206 238 226 218 206 196 214 240 242 236 227 240 266 249 228 263 286 290
102 105 105 109 123 144 140 131 135 151 196 198 196 189 182 183 190 198 197 186 181 197 200 211 214 211 229 237 233 217 191 217 248 260 253 242 248 262 250 225 229 257 276
96 95 93 95 126 146 131 133 141 193 225 210 192 190 188 191 193 191 179 170 178 183 189 208 229 223 228 239 239 226 207 215 232 243 253 251 247 254 258 241 230 242 258
88 93 92 84 86 115 127 134 175 221 227 192 176 194 199 196 184 170 175 174 173 179 200 213 238 245 240 235 241 236 230 226 229 245 248 250 246 246 256 257 264 257 259
110 109 109 89 58 75 114 148 225 199 160 140 187 205 203 195 180 177 184 184 185 191 207 209 226 251 261 255 247 240 242 239 237 251 255 263 261 260 264 269 274 265 224
125 113 101 87 47 32 87 180 222 154 122 132 244 216 200 202 192 184 188 191 198 205 207 211 220 234 245 249 253 255 255 257 255 268 272 273 270 269 280 294 294 254 226
127 116 122 122 133 72 32 293 270 120 130 221 252 235 219 203 198 200 204 202 208 206 202 212 210 212 233 241 230 220 232 226 228 225 296 297 307 311 311 305 292 282 295
143 134 136 145 176 54 336 322 304 145 162 222 262 242 234 222 199 190 259 330 222 227 221 218 211 224 234 239 230 229 229 227 203 162 219 249 251 245 241 251 273 270 256